Tracking 28915 objects as of 30-May-2024
HD Live streaming from Space Station
objects crossing your sky now

CSTP-1.1

Track CSTP-1.1 now!
10-day predictions
CSTP-1.1 is classified as:


NORAD ID: 57202
Int'l Code: 2023-091AN
Perigee: 542.7 km
Apogee: 559.9 km
Inclination: 97.6 °
Period: 95.5 minutes
Semi major axis: 6922 km
RCS: Unknown
Launch date: June 27, 2023
Source: (TBD)
Launch site: VOSTOCHNY COSMODROME (VOSTO)

Uplink (MHz):
Downlink (MHz): 436.075
Beacon (MHz):
Mode: LoRa
Call sign:
Status: Active

Your satellite tracking list
Your tracking list is empty




NASA's NSSDC Master Catalog

Two Line Element Set (TLE):
1 57202U 23091AN  24151.17924476  .00004651  00000-0  31084-3 0  9999
2 57202  97.6179 203.8622 0012420 164.0690 196.0931 15.07407565 50795
Source of the keplerian elements: AFSPC